• In Österreich
  • Länderverzeichnis
  • Für 7 Tage
  • Wassertemperatur
  • Satellitenkarten
  • Wetterkarte
  • News
  • Widgets
  • user-avatar
    Anmelden

    Stündliche Wetter Victoria

    Heute, 18 Dezember, Montag

    Zeit Temperatur Niederschläge Wind Luftdruck Luftfeuchtigkeit
    00:00 +23°C° 0 mm 2 m/S 747 mmHg 61%
    01:00 +21°C° 0 mm 2 m/S 747 mmHg 62%
    02:00 +21°C° 0 mm 2 m/S 747 mmHg 63%
    03:00 +21°C° 0 mm 2 m/S 747 mmHg 64%
    04:00 +20°C° 0 mm 2 m/S 746 mmHg 63%
    05:00 +23°C° 0 mm 2 m/S 747 mmHg 62%
    06:00 +24°C° 0 mm 2 m/S 747 mmHg 60%
    07:00 +25°C° 0 mm 2 m/S 747 mmHg 59%
    08:00 +27°C° 0 mm 2 m/S 747 mmHg 52%
    09:00 +29°C° 0 mm 2 m/S 747 mmHg 44%
    10:00 +32°C° 0 mm 2 m/S 746 mmHg 37%
    11:00 +33°C° 0 mm 1 m/S 746 mmHg 32%
    12:00 +35°C° 0 mm 1 m/S 746 mmHg 27%
    13:00 +36°C° 0 mm 1 m/S 745 mmHg 22%
    14:00 +36°C° 0 mm 1 m/S 745 mmHg 22%
    15:00 +36°C° 0 mm 1 m/S 744 mmHg 22%
    16:00 +34°C° 0 mm 0 m/S 744 mmHg 21%
    17:00 +35°C° 0 mm 1 m/S 744 mmHg 25%
    18:00 +33°C° 0 mm 1 m/S 743 mmHg 28%
    19:00 +32°C° 0 mm 1 m/S 743 mmHg 31%
    20:00 +31°C° 0 mm 1 m/S 743 mmHg 32%
    21:00 +30°C° 0 mm 1 m/S 743 mmHg 33%
    22:00 +29°C° 0 mm 2 m/S 743 mmHg 34%
    23:00 +28°C° 0 mm 2 m/S 742 mmHg 36%

    Morgen, 19 Dezember, Dienstag

    Zeit Temperatur Niederschläge Wind Luftdruck Luftfeuchtigkeit
    00:00 +27°C° 0 mm 2 m/S 742 mmHg 38%
    01:00 +27°C° 0 mm 3 m/S 741 mmHg 40%
    02:00 +27°C° 0 mm 3 m/S 741 mmHg 42%
    03:00 +26°C° 0 mm 4 m/S 740 mmHg 45%
    04:00 +26°C° 0 mm 5 m/S 739 mmHg 47%
    05:00 +27°C° 0 mm 5 m/S 739 mmHg 49%
    06:00 +28°C° 0 mm 6 m/S 739 mmHg 51%
    07:00 +29°C° 0 mm 6 m/S 739 mmHg 53%
    08:00 +32°C° 0 mm 6 m/S 739 mmHg 46%
    09:00 +35°C° 0 mm 6 m/S 739 mmHg 39%
    10:00 +39°C° 0 mm 6 m/S 739 mmHg 32%
    11:00 +40°C° 0 mm 6 m/S 739 mmHg 28%
    12:00 +41°C° 0 mm 6 m/S 738 mmHg 25%
    13:00 +42°C° 0 mm 6 m/S 738 mmHg 21%
    14:00 +40°C° 0 mm 6 m/S 738 mmHg 25%
    15:00 +39°C° 0 mm 6 m/S 738 mmHg 28%
    16:00 +38°C° 0 mm 6 m/S 738 mmHg 32%
    17:00 +35°C° 0,2 mm 6 m/S 738 mmHg 37%
    18:00 +34°C° 0,2 mm 5 m/S 738 mmHg 41%
    19:00 +33°C° 0,2 mm 5 m/S 739 mmHg 46%
    20:00 +30°C° 0,5 mm 4 m/S 739 mmHg 51%
    21:00 +29°C° 0,5 mm 4 m/S 739 mmHg 56%
    22:00 +28°C° 0,5 mm 3 m/S 740 mmHg 61%
    23:00 +27°C° 0,2 mm 3 m/S 740 mmHg 61%

    übermorgen, 20 Dezember, Mittwoch

    Zeit Temperatur Niederschläge Wind Luftdruck Luftfeuchtigkeit
    00:00 +26°C° 0,2 mm 4 m/S 740 mmHg 61%
    01:00 +25°C° 0,2 mm 4 m/S 741 mmHg 62%
    02:00 +23°C° 0,1 mm 4 m/S 741 mmHg 59%
    03:00 +22°C° 0,1 mm 3 m/S 741 mmHg 57%
    04:00 +21°C° 0,1 mm 3 m/S 742 mmHg 54%
    05:00 +21°C° 0,1 mm 3 m/S 742 mmHg 53%
    06:00 +21°C° 0,1 mm 4 m/S 743 mmHg 52%
    07:00 +21°C° 0,1 mm 4 m/S 744 mmHg 50%
    08:00 +22°C° 0 mm 4 m/S 744 mmHg 46%
    09:00 +23°C° 0 mm 5 m/S 745 mmHg 43%
    10:00 +25°C° 0 mm 5 m/S 745 mmHg 39%
    11:00 +26°C° 0 mm 5 m/S 745 mmHg 36%
    12:00 +27°C° 0 mm 6 m/S 745 mmHg 33%
    13:00 +29°C° 0 mm 6 m/S 745 mmHg 31%
    14:00 +28°C° 0 mm 6 m/S 745 mmHg 32%
    15:00 +28°C° 0 mm 5 m/S 746 mmHg 34%
    16:00 +27°C° 0 mm 5 m/S 746 mmHg 36%
    17:00 +27°C° 0 mm 4 m/S 746 mmHg 38%
    18:00 +26°C° 0 mm 3 m/S 747 mmHg 40%
    19:00 +25°C° 0 mm 3 m/S 748 mmHg 43%
    20:00 +24°C° 0 mm 3 m/S 748 mmHg 45%
    21:00 +21°C° 0 mm 4 m/S 749 mmHg 48%
    22:00 +19°C° 0 mm 4 m/S 750 mmHg 51%
    23:00 +18°C° 0 mm 4 m/S 750 mmHg 53%

    21 Dezember, Donnerstag

    Zeit Temperatur Niederschläge Wind Luftdruck Luftfeuchtigkeit
    00:00 +17°C° 0 mm 4 m/S 750 mmHg 56%
    01:00 +15°C° 0 mm 4 m/S 750 mmHg 59%
    02:00 +16°C° 0 mm 3 m/S 751 mmHg 61%
    03:00 +14°C° 0 mm 3 m/S 751 mmHg 64%
    04:00 +13°C° 0 mm 3 m/S 751 mmHg 66%
    05:00 +14°C° 0 mm 3 m/S 751 mmHg 64%
    06:00 +16°C° 0 mm 3 m/S 752 mmHg 62%
    07:00 +17°C° 0 mm 3 m/S 752 mmHg 60%
    08:00 +19°C° 0 mm 2 m/S 752 mmHg 51%
    09:00 +23°C° 0 mm 2 m/S 752 mmHg 43%
    10:00 +25°C° 0 mm 2 m/S 752 mmHg 35%
    11:00 +26°C° 0 mm 2 m/S 752 mmHg 31%
    12:00 +28°C° 0 mm 2 m/S 751 mmHg 27%
    13:00 +29°C° 0 mm 3 m/S 750 mmHg 24%
    14:00 +29°C° 0 mm 3 m/S 750 mmHg 22%
    15:00 +30°C° 0 mm 3 m/S 749 mmHg 21%
    16:00 +30°C° 0 mm 3 m/S 749 mmHg 20%
    17:00 +29°C° 0 mm 2 m/S 749 mmHg 24%
    18:00 +28°C° 0 mm 2 m/S 749 mmHg 27%
    19:00 +27°C° 0 mm 2 m/S 749 mmHg 31%
    20:00 +25°C° 0 mm 2 m/S 750 mmHg 36%
    21:00 +22°C° 0 mm 3 m/S 750 mmHg 40%
    22:00 +20°C° 0 mm 4 m/S 750 mmHg 45%
    23:00 +19°C° 0 mm 3 m/S 750 mmHg 51%

    22 Dezember, Freitag

    Zeit Temperatur Niederschläge Wind Luftdruck Luftfeuchtigkeit
    00:00 +18°C° 0 mm 3 m/S 750 mmHg 57%
    01:00 +17°C° 0 mm 3 m/S 750 mmHg 64%
    02:00 +16°C° 0 mm 3 m/S 750 mmHg 67%
    03:00 +16°C° 0 mm 2 m/S 749 mmHg 70%
    04:00 +15°C° 0 mm 2 m/S 749 mmHg 74%
    05:00 +17°C° 0 mm 2 m/S 750 mmHg 69%
    06:00 +18°C° 0 mm 2 m/S 750 mmHg 65%
    07:00 +19°C° 0 mm 2 m/S 750 mmHg 61%
    08:00 +23°C° 0 mm 2 m/S 750 mmHg 52%
    09:00 +26°C° 0 mm 1 m/S 750 mmHg 43%
    10:00 +28°C° 0 mm 1 m/S 749 mmHg 35%
    11:00 +29°C° 0 mm 2 m/S 749 mmHg 30%
    12:00 +31°C° 0 mm 3 m/S 748 mmHg 25%
    13:00 +33°C° 0 mm 3 m/S 747 mmHg 21%
    14:00 +33°C° 0 mm 3 m/S 747 mmHg 20%
    15:00 +33°C° 0 mm 4 m/S 746 mmHg 19%
    16:00 +34°C° 0 mm 4 m/S 746 mmHg 18%
    17:00 +31°C° 0 mm 3 m/S 746 mmHg 21%
    18:00 +30°C° 0 mm 3 m/S 746 mmHg 24%
    19:00 +28°C° 0 mm 2 m/S 746 mmHg 28%
    20:00 +27°C° 0 mm 2 m/S 746 mmHg 30%
    21:00 +25°C° 0 mm 2 m/S 747 mmHg 33%
    22:00 +23°C° 0 mm 2 m/S 747 mmHg 35%
    23:00 +21°C° 0 mm 2 m/S 747 mmHg 43%

    23 Dezember, Samstag

    Zeit Temperatur Niederschläge Wind Luftdruck Luftfeuchtigkeit
    00:00 +20°C° 0 mm 2 m/S 746 mmHg 50%
    01:00 +18°C° 0 mm 3 m/S 746 mmHg 58%
    02:00 +18°C° 0 mm 2 m/S 746 mmHg 62%
    03:00 +17°C° 0 mm 2 m/S 746 mmHg 65%
    04:00 +16°C° 0 mm 2 m/S 746 mmHg 69%
    05:00 +17°C° 0 mm 2 m/S 746 mmHg 65%
    06:00 +20°C° 0 mm 1 m/S 746 mmHg 60%
    07:00 +21°C° 0 mm 1 m/S 747 mmHg 56%
    08:00 +23°C° 0 mm 2 m/S 747 mmHg 47%
    09:00 +26°C° 0 mm 2 m/S 747 mmHg 38%
    10:00 +28°C° 0 mm 3 m/S 746 mmHg 29%
    11:00 +30°C° 0 mm 3 m/S 746 mmHg 26%
    12:00 +31°C° 0 mm 3 m/S 746 mmHg 23%
    13:00 +33°C° 0 mm 4 m/S 745 mmHg 20%
    14:00 +34°C° 0 mm 4 m/S 745 mmHg 20%
    15:00 +34°C° 0 mm 4 m/S 744 mmHg 20%
    16:00 +34°C° 0 mm 4 m/S 744 mmHg 20%
    17:00 +33°C° 0 mm 4 m/S 744 mmHg 22%
    18:00 +32°C° 0 mm 4 m/S 744 mmHg 24%
    19:00 +30°C° 0 mm 3 m/S 744 mmHg 26%
    20:00 +28°C° 0 mm 3 m/S 745 mmHg 27%
    21:00 +27°C° 0 mm 2 m/S 745 mmHg 28%
    22:00 +25°C° 0 mm 2 m/S 745 mmHg 29%
    23:00 +25°C° 0 mm 2 m/S 745 mmHg 31%
    Mehr zeigen